TimeEST,TemperatureF,Dew PointF,Humidity,Sea Level PressureIn,VisibilityMPH,Wind Direction,Wind SpeedMPH,Gust SpeedMPH,PrecipitationIn,Events,Conditions,WindDirDegrees,DateUTC
12:54 AM,45.0,37.0,74,30.05,10.0,NNE,5.8,-,N/A,,Overcast,30,2014-02-03 05:54:00
1:54 AM,44.1,37.0,76,30.05,10.0,NE,5.8,-,N/A,,Overcast,50,2014-02-03 06:54:00
2:54 AM,43.0,35.1,74,30.07,10.0,NNE,10.4,-,N/A,,Overcast,30,2014-02-03 07:54:00
3:54 AM,39.0,35.1,86,30.09,6.0,NNE,11.5,-,0.04,Rain,Light Rain,20,2014-02-03 08:54:00
4:54 AM,37.9,36.0,93,30.06,4.0,NE,11.5,-,0.02,Rain,Light Rain,40,2014-02-03 09:54:00
5:12 AM,37.0,36.0,96,30.06,4.0,NE,10.4,-,0.01,Rain,Light Rain,40,2014-02-03 10:12:00
5:22 AM,37.0,36.0,96,30.06,2.5,NE,11.5,-,0.02,Rain,Rain,40,2014-02-03 10:22:00
5:30 AM,37.0,36.0,96,30.05,2.5,NE,11.5,-,0.04,Rain,Light Rain,40,2014-02-03 10:30:00
5:39 AM,37.0,36.0,96,30.06,3.0,NE,11.5,-,0.04,Rain,Light Rain,40,2014-02-03 10:39:00
5:54 AM,37.0,36.0,96,30.06,4.0,NNE,12.7,-,0.06,Rain,Rain,30,2014-02-03 10:54:00
6:07 AM,37.0,36.0,96,30.06,2.5,NNE,12.7,-,0.03,Rain,Rain,30,2014-02-03 11:07:00
6:17 AM,37.0,36.0,96,30.08,3.0,NNE,11.5,-,0.05,Rain,Light Rain,20,2014-02-03 11:17:00
6:54 AM,37.0,36.0,96,30.07,3.0,ENE,9.2,-,0.14,Rain,Rain,60,2014-02-03 11:54:00
7:54 AM,37.0,36.0,96,30.09,3.0,ENE,8.1,-,0.18,Rain,Rain,70,2014-02-03 12:54:00
8:54 AM,37.0,36.0,96,30.07,3.0,ENE,10.4,-,0.13,Rain,Rain,70,2014-02-03 13:54:00
9:54 AM,37.0,35.1,93,30.05,4.0,NE,18.4,-,0.18,Rain,Rain,50,2014-02-03 14:54:00
10:54 AM,36.0,35.1,97,30.03,4.0,NE,19.6,25.3,0.21,Rain,Rain,40,2014-02-03 15:54:00
11:54 AM,35.1,34.0,96,30.02,8.0,North,13.8,-,0.12,Rain,Light Rain,10,2014-02-03 16:54:00
12:31 PM,35.1,33.1,92,29.99,9.0,NE,15.0,24.2,0.04,Rain,Light Rain,40,2014-02-03 17:31:00
12:54 PM,35.1,33.1,92,29.99,7.0,NNE,15.0,-,0.07,Rain,Light Rain,20,2014-02-03 17:54:00
1:54 PM,34.0,32.0,92,30.02,6.0,North,17.3,-,0.03,Rain,Light Rain,10,2014-02-03 18:54:00
2:24 PM,34.0,32.0,92,30.04,2.0,North,13.8,23.0,0.02,Rain,Light Rain,10,2014-02-03 19:24:00
2:54 PM,34.0,32.0,92,30.05,2.5,North,12.7,-,0.03,Snow,Light Snow,10,2014-02-03 19:54:00
3:01 PM,34.0,32.0,92,30.06,3.0,North,16.1,-,0.01,Snow,Light Snow,10,2014-02-03 20:01:00
3:54 PM,34.0,33.1,96,30.09,9.0,NNE,12.7,-,0.02,Rain,Light Rain,20,2014-02-03 20:54:00
4:54 PM,34.0,33.1,96,30.13,10.0,North,11.5,-,0.00,,Overcast,360,2014-02-03 21:54:00
5:54 PM,34.0,32.0,92,30.17,10.0,North,13.8,-,N/A,,Overcast,360,2014-02-03 22:54:00
6:54 PM,33.1,30.9,92,30.22,10.0,North,10.4,-,N/A,,Overcast,350,2014-02-03 23:54:00
7:06 PM,33.1,30.9,92,30.21,10.0,North,12.7,-,N/A,,Overcast,360,2014-02-04 00:06:00
7:54 PM,33.1,30.9,92,30.23,10.0,North,10.4,-,N/A,,Overcast,360,2014-02-04 00:54:00
8:30 PM,33.1,30.9,92,30.25,10.0,North,8.1,-,N/A,,Overcast,360,2014-02-04 01:30:00
8:54 PM,32.0,30.0,92,30.25,10.0,North,9.2,-,N/A,,Overcast,10,2014-02-04 01:54:00
9:54 PM,33.1,30.0,89,30.29,10.0,North,4.6,-,N/A,,Overcast,360,2014-02-04 02:54:00
10:15 PM,33.1,30.0,89,30.30,10.0,NNW,4.6,-,N/A,,Overcast,330,2014-02-04 03:15:00
10:35 PM,33.1,30.0,89,30.30,10.0,North,3.5,-,N/A,,Overcast,360,2014-02-04 03:35:00
10:54 PM,33.1,30.0,89,30.30,10.0,North,5.8,-,N/A,,Overcast,10,2014-02-04 03:54:00
11:54 PM,33.1,28.0,82,30.31,10.0,North,11.5,-,N/A,,Overcast,10,2014-02-04 04:54:00